Location: Unspecified
(38.9820°N, 94.4650°W)
Time: 21:55:49
(UTC-06:00)

Okean 3 - Visible Passes

Search period start: 22 November 2017 00:00
Search period end: 02 December 2017 00:00
Orbit: 576 x 603 km, 82.5° (Epoch: 22 November)

Date Brightness Start Highest point End Pass type
(mag) Time Alt. Az. Time Alt. Az. Time Alt. Az.
22 Nov 6.1 06:01:20 10° NNE 06:04:34 21° ENE 06:07:48 10° SE visible
23 Nov 5.4 06:09:03 10° NNE 06:12:50 31° ENE 06:16:36 10° SE visible
24 Nov 4.5 06:16:57 10° N 06:21:03 48° E 06:25:09 10° SSE visible
25 Nov 3.7 06:25:00 10° N 06:29:13 76° E 06:33:27 10° SSE visible
25 Nov 5.5 18:50:24 10° SSE 18:51:15 15° SSE 18:51:15 15° SSE visible
26 Nov 3.4 06:33:10 10° NNW 06:37:22 69° W 06:41:35 10° S visible
26 Nov 4.6 18:58:19 10° S 19:00:32 30° S 19:00:32 30° S visible
27 Nov 6.4 05:05:49 10° NE 05:08:00 14° ENE 05:10:11 10° ESE visible
27 Nov 3.8 06:41:27 10° NNW 06:45:28 44° W 06:49:31 10° SSW visible
27 Nov 3.8 19:06:26 10° S 19:09:48 57° SSW 19:09:48 57° SSW visible
28 Nov 6.0 05:13:08 10° NNE 05:16:19 20° ENE 05:19:29 10° ESE visible
28 Nov 5.3 17:40:37 10° ESE 17:42:01 11° E 17:42:26 11° ENE visible
28 Nov 4.3 19:14:44 10° SSW 19:18:45 48° W 19:19:03 47° WNW visible
29 Nov 5.4 05:20:49 10° NNE 05:24:34 30° ENE 05:28:19 10° SE visible
29 Nov 4.9 17:47:14 10° SE 17:50:00 18° E 17:51:38 14° ENE visible
29 Nov 5.1 19:23:15 10° SW 19:26:59 31° WNW 19:28:14 26° NW visible
30 Nov 4.5 05:28:42 10° N 05:32:48 45° E 05:36:53 10° SSE visible
30 Nov 4.4 17:54:32 10° SSE 17:58:02 26° E 18:00:45 14° NE visible
30 Nov 5.8 19:32:03 10° SW 19:35:14 21° WNW 19:37:22 15° NW visible
01 Dec 3.7 05:36:44 10° N 05:40:59 72° E 05:45:14 10° SSE visible
01 Dec 3.8 18:02:11 10° SSE 18:06:05 40° E 18:09:48 11° NNE visible
01 Dec 6.4 19:41:16 10° WSW 19:43:32 14° WNW 19:45:48 10° NW visible
